CAPE
50 0 2 125 58 29 10 11 7 0 0 0 0 0 0 0 0 0 32 469 607 857 1131 1748 1874 1161 1152 1209 1120 943 857 839 825 852 768 684 652 983 1016 1224 1493 1406 1473 1536 1409 1568 1576 1686 1448
46 0 4 46 30 17 0 4 4 0 0 0 0 0 0 0 304 146 20 185 621 785 1262 1396 1762 1462 1130 1078 941 750 655 564 444 398 398 433 393 591 670 551 819 1205 1376 1349 1442 1351 1548 1681 1356
0 0 4 32 10 0 0 4 1 0 0 0 0 0 0 0 222 63 9 525 570 690 1129 1099 2190 1887 1671 1100 791 558 417 332 141 62 49 65 137 238 155 271 406 524 613 1004 1481 1514 1372 1700 1552
0 0 0 0 0 0 0 1 0 0 0 0 0 0 0 0 65 32 6 301 369 421 980 1712 2359 1769 1789 1277 722 457 207 83 22 11 5 0 14 25 0 8 224 146 168 272 468 912 1389 1731 1443
0 0 0 0 0 0 0 0 0 0 0 0 0 0 0 0 0 11 0 272 100 514 913 1824 2122 1649 1530 1231 783 427 117 44 55 3 0 0 0 0 0 0 1 31 96 127 111 320 822 1730 1296
0 0 0 0 0 0 0 0 0 0 0 0 0 0 0 0 61 0 0 113 238 843 1203 1569 2240 2166 1622 1229 897 466 311 48 0 0 0 0 0 0 0 0 0 0 1 3 18 256 994 1362 1204
0 0 0 0 0 0 0 0 0 0 0 0 0 0 0 0 12 9 0 293 637 919 1139 1379 1675 1869 2046 1742 1045 575 348 141 0 0 0 0 0 0 0 0 0 0 0 0 1 105 398 614 620
0 0 0 0 0 0 0 0 0 0 0 0 0 0 0 0 0 0 0 141 496 1032 1230 1528 1571 1351 1127 966 1302 668 452 175 0 0 0 0 0 0 0 0 0 0 0 0 0 0 41 204 170
0 0 0 0 0 0 0 0 0 0 0 0 0 0 0 0 0 0 0 0 311 480 887 1201 932 779 636 464 675 905 427 130 15 0 1 0 0 0 0 0 0 0 0 0 0 0 0 0 0
0 0 0 0 0 0 0 0 0 0 0 0 0 0 0 0 0 0 0 0 27 325 531 890 674 552 328 506 446 339 148 2 0 0 0 0 0 0 0 0 0 0 0 0 0 0 0 0 0
0 0 0 0 0 0 0 0 0 0 0 0 0 0 0 0 0 0 0 0 0 9 287 829 610 478 268 285 135 53 0 0 0 0 0 0 0 0 0 0 0 0 0 0 0 0 0 0 0
0 0 0 0 0 0 0 0 0 0 0 0 0 0 0 0 0 0 0 0 0 0 0 453 649 498 255 152 133 80 0 0 0 0 0 0 0 0 0 0 0 0 0 0 0 0 0 0 0
0 0 0 0 0 0 0 0 0 0 0 0 0 0 0 0 0 0 0 0 0 0 0 0 557 439 298 115 108 0 0 0 0 0 0 0 0 0 0 0 0 0 0 0 0 0 0 0 0
0 0 0 0 0 0 0 0 0 0 0 0 0 0 0 0 0 0 0 0 0 0 0 0 157 342 187 64 97 0 0 0 0 0 0 0 0 0 0 0 0 0 0 0 0 0 0 0 0
0 0 0 0 0 0 0 0 0 0 0 0 0 0 0 0 0 0 0 0 0 0 0 0 0 10 61 11 25 0 0 0 0 0 0 0 0 0 0 0 0 0 0 0 0 0 0 0 0
0 0 0 0 0 0 0 0 0 0 0 0 0 0 0 0 0 0 0 0 0 0 0 0 0 0 0 0 0 0 0 0 0 0 0 0 0 0 0 0 0 0 0 0 0 0 0 0 0
0 0 0 0 0 0 0 0 0 0 0 0 0 0 0 0 0 0 0 0 0 0 0 0 0 0 0 0 0 0 0 0 0 0 0 0 0 0 0 0 0 0 0 0 0 0 0 0 0
0 0 0 0 0 0 0 0 0 0 0 0 0 0 0 0 0 0 0 0 0 0 0 0 0 0 0 0 0 0 0 0 0 0 0 0 0 0 0 0 0 0 0 0 0 0 0 0 0
0 0 0 0 0 0 0 0 0 0 0 0 0 0 0 0 0 0 0 0 0 0 0 0 0 0 0 0 0 0 0 0 0 0 0 0 0 0 0 0 0 0 0 0 0 0 0 0 0
0 0 0 0 0 0 0 0 0 0 0 0 0 0 0 0 0 0 0 0 0 0 0 0 0 0 0 0 0 0 0 0 0 0 0 0 0 0 0 0 0 0 0 0 0 0 0 0 0
0 0 0 0 0 0 0 0 0 0 0 0 0 0 0 0 0 0 0 0 0 0 0 0 0 0 0 0 0 0 0 0 0 0 0 0 0 0 0 0 0 0 0 0 0 0 0 0 0
0 0 0 0 0 0 0 0 0 0 0 0 0 0 0 0 0 0 0 0 0 0 0 0 0 0 0 0 0 0 0 0 0 0 0 0 0 0 0 0 0 0 0 0 0 0 0 0 0
0 0 0 0 0 0 0 0 0 0 0 0 0 0 0 0 0 0 0 0 0 0 0 0 0 0 0 0 0 0 0 0 0 0 0 0 0 0 0 0 0 0 0 0 0 0 0 0 0
0 0 0 0 0 0 0 0 0 0 0 0 0 0 0 0 0 0 0 0 0 0 0 0 0 0 0 0 0 0 0 0 0 0 0 0 0 0 0 0 0 0 0 0 0 0 0 0 0
0 0 0 0 0 0 0 0 0 0 0 0 0 0 0 0 0 0 0 0 0 0 0 0 0 0 0 0 0 0 0 0 0 0 0 0 0 0 0 0 0 0 0 0 0 0 0 0 0
0 0 0 0 0 0 0 0 0 0 0 0 0 0 0 0 0 0 0 0 0 0 0 0 0 0 0 0 0 0 0 0 0 0 0 0 0 0 0 0 0 0 0 0 0 0 0 0 0
0 0 0 0 0 0 0 0 0 0 0 0 0 0 0 0 0 0 0 0 0 0 0 0 0 0 0 0 0 0 0 0 0 0 0 0 0 0 0 0 0 0 0 0 0 0 0 0 0
0 0 0 0 0 0 0 0 0 0 0 0 0 0 0 0 0 0 0 0 0 0 0 0 0 0 0 0 0 0 0 0 0 0 0 0 0 0 0 0 0 0 0 0 0 0 0 0 0
0 0 0 0 0 0 0 0 0 0 0 0 0 0 0 0 0 0 0 0 0 0 0 0 0 0 0 0 0 0 0 0 0 0 0 0 0 0 0 0 0 0 0 0 0 0 0 0 0
0 0 0 0 0 0 0 0 0 0 0 0 0 0 0 0 0 0 0 0 0 0 0 0 0 0 0 0 0 0 0 0 0 0 0 0 0 0 0 0 0 0 0 0 0 0 0 0 0
CIN
-526 -0 -189 -349 -91 -164 -68 -82 -83 -0 -0 -0 -0 -0 -0 -0 -0 -0 -544 -340 -308 -200 -97 -2 -0 -46 -37 -21 -27 -34 -45 -51 -48 -42 -55 -69 -83 -23 -6 -0 -0 -0 -0 -0 -0 -0 -0 -0 -1
-546 -0 -195 -321 -85 -48 -0 -99 -65 -0 -0 -0 -0 -0 -0 -0 -217 -382 -589 -486 -298 -228 -82 -37 -0 -16 -54 -55 -77 -109 -115 -141 -171 -177 -169 -159 -170 -102 -70 -80 -33 -4 -1 -0 -0 -0 -0 -0 -1
-0 -0 -87 -185 -121 -0 -14 -69 -38 -0 -0 -0 -0 -0 -0 -0 -263 -516 -691 -366 -306 -245 -121 -95 -0 -0 -11 -82 -134 -190 -229 -244 -350 -448 -458 -419 -327 -239 -290 -208 -139 -99 -100 -45 -0 -0 -0 -0 -0
-0 -0 -0 -0 -0 -0 -0 -56 -0 -0 -0 -0 -0 -0 -0 -0 -392 -592 -828 -451 -394 -359 -177 -22 -0 -2 -1 -46 -167 -258 -364 -450 -538 -551 -549 -0 -508 -464 -0 -128 -249 -286 -254 -216 -148 -34 -0 -0 -0
-0 -0 -0 -0 -0 -0 -0 -0 -0 -0 -0 -0 -0 -0 -0 -0 -0 -576 -0 -464 -576 -333 -208 -27 -2 -4 -14 -53 -144 -259 -429 -505 -478 -543 -0 -0 -0 -0 -0 -0 -0 -421 -353 -315 -312 -199 -55 -0 -0
-0 -0 -0 -0 -0 -0 -0 -0 -0 -0 -0 -0 -0 -0 -0 -0 -468 -0 -0 -611 -444 -238 -139 -52 -1 -1 -16 -58 -121 -247 -309 -479 -0 -0 -0 -0 -0 -0 -0 -0 -0 -0 -0 -78 -447 -237 -46 -7 -19
-0 -0 -0 -0 -0 -0 -0 -0 -0 -0 -0 -0 -0 -0 -0 -0 -490 -510 -0 -474 -290 -210 -153 -96 -42 -26 -1 -15 -83 -193 -270 -380 -0 -0 -0 -0 -0 -0 -0 -0 -0 -0 -0 -0 -0 -342 -181 -122 -117
-0 -0 -0 -0 -0 -0 -0 -0 -0 -0 -0 -0 -0 -0 -0 -0 -0 -0 -0 -476 -322 -205 -148 -97 -64 -67 -91 -107 -43 -167 -227 -345 -0 -0 -0 -0 -0 -0 -0 -0 -0 -0 -0 -0 -0 -0 -363 -270 -304
-0 -0 -0 -0 -0 -0 -0 -0 -0 -0 -0 -0 -0 -0 -0 -0 -0 -0 -0 -0 -326 -254 -178 -112 -133 -151 -213 -268 -180 -103 -229 -358 -474 -0 -0 -0 -0 -0 -0 -0 -0 -0 -0 -0 -0 -0 -0 -0 -0
-0 -0 -0 -0 -0 -0 -0 -0 -0 -0 -0 -0 -0 -0 -0 -0 -0 -0 -0 -0 -220 -278 -261 -185 -230 -267 -331 -232 -222 -242 -321 -168 -0 -0 -0 -0 -0 -0 -0 -0 -0 -0 -0 -0 -0 -0 -0 -0 -0
-0 -0 -0 -0 -0 -0 -0 -0 -0 -0 -0 -0 -0 -0 -0 -0 -0 -0 -0 -0 -0 -301 -390 -243 -297 -325 -361 -285 -368 -446 -0 -0 -0 -0 -0 -0 -0 -0 -0 -0 -0 -0 -0 -0 -0 -0 -0 -0 -0
-0 -0 -0 -0 -0 -0 -0 -0 -0 -0 -0 -0 -0 -0 -0 -0 -0 -0 -0 -0 -0 -0 -0 -347 -271 -315 -421 -438 -401 -463 -0 -0 -0 -0 -0 -0 -0 -0 -0 -0 -0 -0 -0 -0 -0 -0 -0 -0 -0
-0 -0 -0 -0 -0 -0 -0 -0 -0 -0 -0 -0 -0 -0 -0 -0 -0 -0 -0 -0 -0 -0 -0 -0 -307 -339 -448 -558 -499 -0 -0 -0 -0 -0 -0 -0 -0 -0 -0 -0 -0 -0 -0 -0 -0 -0 -0 -0 -0
-0 -0 -0 -0 -0 -0 -0 -0 -0 -0 -0 -0 -0 -0 -0 -0 -0 -0 -0 -0 -0 -0 -0 -0 -464 -395 -428 -659 -641 -0 -0 -0 -0 -0 -0 -0 -0 -0 -0 -0 -0 -0 -0 -0 -0 -0 -0 -0 -0
-0 -0 -0 -0 -0 -0 -0 -0 -0 -0 -0 -0 -0 -0 -0 -0 -0 -0 -0 -0 -0 -0 -0 -0 -0 -27 -428 -615 -698 -0 -0 -0 -0 -0 -0 -0 -0 -0 -0 -0 -0 -0 -0 -0 -0 -0 -0 -0 -0
-0 -0 -0 -0 -0 -0 -0 -0 -0 -0 -0 -0 -0 -0 -0 -0 -0 -0 -0 -0 -0 -0 -0 -0 -0 -0 -0 -0 -0 -0 -0 -0 -0 -0 -0 -0 -0 -0 -0 -0 -0 -0 -0 -0 -0 -0 -0 -0 -0
-0 -0 -0 -0 -0 -0 -0 -0 -0 -0 -0 -0 -0 -0 -0 -0 -0 -0 -0 -0 -0 -0 -0 -0 -0 -0 -0 -0 -0 -0 -0 -0 -0 -0 -0 -0 -0 -0 -0 -0 -0 -0 -0 -0 -0 -0 -0 -0 -0
-0 -0 -0 -0 -0 -0 -0 -0 -0 -0 -0 -0 -0 -0 -0 -0 -0 -0 -0 -0 -0 -0 -0 -0 -0 -0 -0 -0 -0 -0 -0 -0 -0 -0 -0 -0 -0 -0 -0 -0 -0 -0 -0 -0 -0 -0 -0 -0 -0
-0 -0 -0 -0 -0 -0 -0 -0 -0 -0 -0 -0 -0 -0 -0 -0 -0 -0 -0 -0 -0 -0 -0 -0 -0 -0 -0 -0 -0 -0 -0 -0 -0 -0 -0 -0 -0 -0 -0 -0 -0 -0 -0 -0 -0 -0 -0 -0 -0
-0 -0 -0 -0 -0 -0 -0 -0 -0 -0 -0 -0 -0 -0 -0 -0 -0 -0 -0 -0 -0 -0 -0 -0 -0 -0 -0 -0 -0 -0 -0 -0 -0 -0 -0 -0 -0 -0 -0 -0 -0 -0 -0 -0 -0 -0 -0 -0 -0
-0 -0 -0 -0 -0 -0 -0 -0 -0 -0 -0 -0 -0 -0 -0 -0 -0 -0 -0 -0 -0 -0 -0 -0 -0 -0 -0 -0 -0 -0 -0 -0 -0 -0 -0 -0 -0 -0 -0 -0 -0 -0 -0 -0 -0 -0 -0 -0 -0
-0 -0 -0 -0 -0 -0 -0 -0 -0 -0 -0 -0 -0 -0 -0 -0 -0 -0 -0 -0 -0 -0 -0 -0 -0 -0 -0 -0 -0 -0 -0 -0 -0 -0 -0 -0 -0 -0 -0 -0 -0 -0 -0 -0 -0 -0 -0 -0 -0
-0 -0 -0 -0 -0 -0 -0 -0 -0 -0 -0 -0 -0 -0 -0 -0 -0 -0 -0 -0 -0 -0 -0 -0 -0 -0 -0 -0 -0 -0 -0 -0 -0 -0 -0 -0 -0 -0 -0 -0 -0 -0 -0 -0 -0 -0 -0 -0 -0
-0 -0 -0 -0 -0 -0 -0 -0 -0 -0 -0 -0 -0 -0 -0 -0 -0 -0 -0 -0 -0 -0 -0 -0 -0 -0 -0 -0 -0 -0 -0 -0 -0 -0 -0 -0 -0 -0 -0 -0 -0 -0 -0 -0 -0 -0 -0 -0 -0
-0 -0 -0 -0 -0 -0 -0 -0 -0 -0 -0 -0 -0 -0 -0 -0 -0 -0 -0 -0 -0 -0 -0 -0 -0 -0 -0 -0 -0 -0 -0 -0 -0 -0 -0 -0 -0 -0 -0 -0 -0 -0 -0 -0 -0 -0 -0 -0 -0
-0 -0 -0 -0 -0 -0 -0 -0 -0 -0 -0 -0 -0 -0 -0 -0 -0 -0 -0 -0 -0 -0 -0 -0 -0 -0 -0 -0 -0 -0 -0 -0 -0 -0 -0 -0 -0 -0 -0 -0 -0 -0 -0 -0 -0 -0 -0 -0 -0
-0 -0 -0 -0 -0 -0 -0 -0 -0 -0 -0 -0 -0 -0 -0 -0 -0 -0 -0 -0 -0 -0 -0 -0 -0 -0 -0 -0 -0 -0 -0 -0 -0 -0 -0 -0 -0 -0 -0 -0 -0 -0 -0 -0 -0 -0 -0 -0 -0
-0 -0 -0 -0 -0 -0 -0 -0 -0 -0 -0 -0 -0 -0 -0 -0 -0 -0 -0 -0 -0 -0 -0 -0 -0 -0 -0 -0 -0 -0 -0 -0 -0 -0 -0 -0 -0 -0 -0 -0 -0 -0 -0 -0 -0 -0 -0 -0 -0
-0 -0 -0 -0 -0 -0 -0 -0 -0 -0 -0 -0 -0 -0 -0 -0 -0 -0 -0 -0 -0 -0 -0 -0 -0 -0 -0 -0 -0 -0 -0 -0 -0 -0 -0 -0 -0 -0 -0 -0 -0 -0 -0 -0 -0 -0 -0 -0 -0
-0 -0 -0 -0 -0 -0 -0 -0 -0 -0 -0 -0 -0 -0 -0 -0 -0 -0 -0 -0 -0 -0 -0 -0 -0 -0 -0 -0 -0 -0 -0 -0 -0 -0 -0 -0 -0 -0 -0 -0 -0 -0 -0 -0 -0 -0 -0 -0 -0
Wind_Speed
7 6 1 4 5 4 2 3 3 4 1 2 3 7 4 4 2 4 1 12 12 12 10 11 15 15 14 13 12 11 11 11 10 11 10 10 10 11 10 10 11 11 10 9 9 10 9 10 12
4 3 4 2 6 3 5 3 4 4 5 5 5 6 2 3 2 4 6 10 15 13 10 9 16 14 15 14 14 11 10 11 11 11 10 10 10 11 10 9 9 11 11 10 8 8 8 9 11
3 1 4 4 2 1 3 4 4 3 4 3 3 1 8 5 3 8 4 16 14 12 11 10 15 14 14 15 14 13 12 12 11 11 11 11 12 11 11 9 9 9 10 11 10 8 7 8 10
3 5 4 5 2 4 4 4 2 2 3 2 2 2 1 4 7 8 13 17 15 13 12 14 17 15 16 15 14 13 14 13 12 12 11 11 11 11 11 10 9 9 8 8 7 7 6 7 9
4 3 4 3 4 5 6 5 3 0 1 4 1 2 2 7 2 9 17 15 14 12 11 14 19 17 16 15 14 13 13 13 13 12 12 11 10 11 10 10 10 9 9 8 7 6 6 9 8
5 3 4 2 4 5 6 7 4 3 1 3 2 3 4 4 7 9 12 12 13 14 12 12 17 18 17 16 15 14 13 12 13 12 11 11 10 10 10 10 10 10 9 9 8 7 6 10 9
5 4 3 3 4 6 3 9 4 3 6 3 3 2 3 4 8 10 9 9 12 13 13 12 13 16 18 16 15 14 13 13 12 12 12 11 10 10 10 10 10 9 10 9 8 7 7 5 7
5 4 1 3 2 7 5 7 1 6 6 7 2 2 4 9 8 5 7 9 8 10 12 12 11 11 11 10 16 15 14 13 13 12 12 11 11 11 10 9 9 9 9 9 8 7 6 4 4
3 5 2 5 2 6 4 6 3 4 4 5 5 2 6 3 8 5 4 5 7 8 9 9 10 9 9 8 11 16 16 14 14 11 12 9 3 4 6 6 9 9 9 8 7 6 5 4 2
5 4 8 5 1 5 4 1 5 6 9 5 6 9 7 6 6 9 6 7 7 10 9 10 11 11 9 8 7 6 8 5 5 5 4 3 4 3 5 6 8 8 8 7 7 5 3 2 1
4 6 4 4 4 3 4 5 1 3 7 7 5 8 8 2 4 7 7 7 13 13 9 14 13 11 12 10 7 3 3 4 4 6 5 4 3 3 2 1 1 0 5 0 1 2 1 2 2
1 7 5 5 3 5 5 5 5 5 11 7 8 6 6 7 7 9 9 10 7 10 16 15 14 12 12 8 8 8 6 6 5 6 7 5 3 4 3 3 3 2 1 2 1 1 2 2 2
4 3 4 7 9 7 3 9 4 10 11 10 8 6 10 11 11 14 13 13 11 7 11 15 15 14 13 11 8 8 10 9 10 8 8 6 5 5 4 4 3 3 2 3 3 3 2 2 3
4 4 9 8 7 5 4 5 4 8 5 9 3 19 15 16 14 19 19 15 15 10 8 5 12 16 14 14 14 11 10 11 9 9 10 12 8 7 5 5 4 4 4 3 4 4 3 3 2
5 6 8 5 4 3 2 4 5 8 3 6 15 14 15 15 19 16 12 16 15 11 13 16 4 5 8 15 15 11 10 10 9 9 12 13 12 11 10 6 5 5 4 5 3 2 1 2 1
4 4 5 5 9 5 3 8 8 10 7 11 14 10 14 17 16 10 13 14 14 15 17 17 15 13 5 2 2 4 5 7 9 8 7 12 12 12 9 7 6 6 5 4 3 3 2 3 3
6 2 2 10 5 5 2 8 7 11 5 14 11 10 13 13 15 12 13 10 11 12 15 16 16 17 14 9 5 1 1 3 5 5 7 12 12 12 10 8 8 7 5 4 4 3 3 3 3
3 3 4 4 7 9 7 6 15 16 16 13 9 8 11 12 10 8 9 8 10 9 11 13 12 13 14 9 7 7 4 0 2 5 6 10 10 12 10 7 7 7 5 4 3 3 3 3 4
2 2 5 5 3 5 3 6 10 10 14 12 9 8 8 9 6 6 8 9 10 12 10 10 12 10 10 10 11 7 7 6 2 1 4 6 6 10 9 6 7 7 9 9 7 4 5 3 2
2 3 5 6 5 3 4 6 6 7 6 7 7 7 6 5 7 8 8 8 9 9 8 10 8 8 5 3 3 3 3 3 2 3 3 5 6 7 8 10 10 9 6 7 8 6 3 3 5
3 3 2 6 6 2 1 3 5 4 8 8 7 4 4 5 6 7 8 8 8 9 9 9 8 8 5 7 4 4 2 4 5 6 4 5 7 9 10 10 8 10 8 9 9 8 9 5 4
4 1 2 5 6 3 5 5 5 5 6 6 6 5 4 5 5 5 6 7 7 7 7 8 8 7 6 6 5 5 3 4 3 3 4 7 6 7 9 9 11 11 9 9 11 9 7 6 6
7 3 5 4 5 3 3 3 3 5 5 5 6 6 4 3 2 4 5 6 5 6 7 7 8 10 7 6 4 2 2 3 3 4 6 5 7 7 11 12 12 12 10 12 11 8 8 6 5
5 4 4 4 4 1 5 5 5 1 3 2 4 6 6 4 3 3 4 5 5 6 7 7 8 8 8 8 9 8 8 7 5 4 4 5 5 4 8 11 12 13 12 12 12 13 12 12 6
10 7 5 4 4 7 3 1 2 6 4 2 4 8 8 7 4 4 6 6 6 7 8 7 7 7 7 7 7 8 8 8 6 6 4 6 6 7 7 10 12 12 13 14 12 12 13 12 12
3 3 5 4 3 6 8 4 5 7 6 2 2 6 8 9 5 6 7 6 7 8 8 7 5 5 7 7 8 8 9 5 4 4 5 4 5 7 10 10 13 16 16 15 14 11 11 11 11
3 3 2 1 2 2 4 2 7 5 3 2 6 7 8 7 4 5 7 6 7 8 8 6 5 6 8 9 8 7 7 6 6 9 6 4 5 7 11 12 13 16 16 16 15 12 12 12 13
3 1 3 3 3 6 6 5 6 7 4 5 9 6 6 7 5 7 7 8 8 7 7 7 6 7 8 8 7 10 11 11 9 8 8 8 7 6 10 12 13 13 16 16 16 13 11 12 10
6 3 4 3 5 4 5 8 7 8 3 10 11 11 11 4 6 7 7 9 9 8 7 7 8 10 11 8 7 8 11 13 8 9 12 8 7 7 9 13 14 12 14 15 16 16 13 15 13
2 2 4 5 5 2 4 12 8 5 13 15 14 11 9 6 6 7 8 8 8 7 8 7 8 7 7 8 7 8 11 13 9 11 12 9 8 7 6 10 15 11 11 14 16 16 14 16 15
Wind_Direction
325 313 94 39 53 55 247 246 212 262 91 218 166 112 159 131 136 220 260 163 139 151 164 163 162 158 156 149 142 137 131 127 123 119 116 110 105 108 108 94 89 107 101 94 89 84 84 92 95
335 345 35 74 72 38 283 294 286 229 192 178 101 108 118 199 169 150 113 171 152 154 160 159 162 160 159 154 151 148 143 137 129 124 121 118 117 122 116 104 104 108 112 106 99 87 88 90 97
308 162 74 82 110 250 261 222 216 264 220 147 133 132 156 207 179 176 207 155 147 159 159 165 164 165 165 163 158 152 147 144 138 134 132 128 127 125 117 118 127 121 115 113 97 95 93 98 95
16 12 33 77 294 272 239 295 60 239 304 305 109 110 109 221 154 183 152 152 150 160 159 167 165 165 165 164 163 158 153 152 148 147 143 139 137 134 129 128 130 133 135 130 123 111 102 111 104
30 56 44 32 292 286 293 277 114 90 3 282 75 231 165 321 229 145 155 157 155 159 161 164 166 167 168 169 169 166 161 158 157 156 152 148 147 142 140 137 136 140 139 135 130 132 140 133 110
37 87 47 330 278 281 304 332 328 24 355 60 6 114 230 304 144 164 156 158 158 154 161 167 170 168 170 175 178 177 172 167 164 162 161 156 153 152 148 146 142 142 139 138 138 145 136 130 110
105 78 205 250 281 319 313 320 34 335 337 294 188 141 285 253 222 165 157 139 154 159 159 170 174 173 173 176 180 180 181 177 176 173 171 168 163 162 159 157 153 150 145 142 142 146 153 133 89
106 94 288 265 255 273 322 340 332 44 295 305 304 197 235 235 203 174 149 141 150 160 170 171 171 173 172 175 176 181 186 184 187 186 182 180 175 173 171 167 161 158 156 150 145 144 148 152 149
85 67 233 247 219 267 319 358 318 292 329 337 337 352 250 252 139 164 161 120 162 175 176 170 171 175 172 173 181 180 187 193 193 194 193 187 159 175 168 166 172 170 165 164 154 145 137 124 75
94 121 222 217 202 259 288 18 306 13 334 313 337 336 2 122 157 177 200 173 177 189 189 184 182 180 171 176 180 182 179 171 174 182 197 160 175 178 180 194 185 180 178 173 164 160 182 183 4
174 200 221 266 253 286 276 300 244 360 309 235 268 288 312 257 191 195 221 207 195 197 189 192 191 181 175 179 174 170 167 164 170 181 185 174 169 205 176 208 236 228 175 344 106 100 96 126 134
241 240 227 275 343 337 300 306 313 211 247 242 254 250 277 221 224 222 226 222 211 185 198 197 193 181 184 178 179 178 179 177 176 188 176 169 183 209 200 204 207 222 239 213 224 228 171 128 129
219 286 290 286 285 260 261 248 244 280 277 295 302 314 10 16 6 18 5 353 325 262 205 199 188 189 186 182 179 181 187 191 189 180 178 170 178 189 185 213 206 223 237 225 219 222 182 131 107
302 284 287 290 288 250 262 298 131 280 338 356 35 60 53 43 37 40 29 9 5 354 2 298 221 194 185 190 188 192 188 192 188 187 189 181 177 182 187 197 209 228 221 223 210 200 187 188 155
283 322 328 314 325 317 131 352 226 252 306 348 44 71 61 51 44 44 34 30 23 20 16 17 318 232 256 197 193 192 196 189 194 197 188 184 181 185 183 187 194 211 214 220 215 230 153 170 199
348 49 360 290 1 358 50 268 281 337 2 23 91 68 65 53 46 32 32 37 31 31 29 23 29 34 3 249 286 296 281 206 195 194 189 189 189 185 177 181 191 193 193 192 193 190 203 205 191
9 319 293 319 352 356 26 288 347 319 16 86 73 62 61 51 40 28 28 23 21 25 26 24 23 29 29 16 7 320 247 241 258 196 193 195 189 189 180 183 191 178 180 186 184 201 172 193 214
288 317 280 270 312 353 321 18 16 35 75 82 66 49 62 53 30 15 21 21 18 9 21 24 23 22 23 23 27 16 4 285 3 288 226 190 194 189 184 183 179 166 165 189 176 184 204 193 194
211 250 283 260 292 344 331 56 47 53 64 59 51 48 46 41 353 7 25 23 28 28 13 11 24 8 21 17 13 14 360 352 284 223 313 288 246 187 182 187 178 175 183 188 180 160 190 234 166
302 287 303 284 323 326 5 83 66 63 60 68 70 57 54 34 17 7 6 16 24 21 14 14 10 8 12 7 355 349 321 331 4 327 277 268 267 211 203 187 192 188 177 175 175 164 163 207 189
315 260 303 265 315 301 69 146 112 63 66 60 38 38 28 47 36 12 8 8 11 14 7 12 7 356 4 5 349 1 340 357 11 358 336 291 247 252 213 201 196 187 186 197 190 175 169 184 222
328 197 266 305 13 269 66 277 225 114 59 35 20 29 26 11 16 18 12 6 8 358 357 354 352 356 5 356 30 45 18 346 317 294 298 315 277 249 243 230 200 195 192 193 199 188 175 142 188
245 313 264 240 198 327 319 115 205 164 39 356 341 355 353 6 354 20 7 354 356 349 351 349 340 350 344 354 35 27 348 230 271 300 334 317 312 280 258 231 220 206 197 203 196 182 188 179 157
293 320 355 48 102 1 220 162 205 173 157 311 331 330 322 341 338 345 330 344 346 339 342 346 4 342 344 342 343 347 341 329 335 323 322 316 316 284 262 253 234 221 207 200 197 197 194 195 182
38 32 344 354 359 230 186 12 276 168 198 109 15 334 308 317 300 317 345 345 339 343 337 350 11 343 325 319 324 314 301 302 296 305 289 297 304 311 285 253 246 232 215 206 199 195 196 195 196
353 127 148 273 263 291 326 250 228 186 163 127 335 289 312 315 290 309 321 318 301 296 311 319 348 331 317 310 306 303 299 280 288 272 276 278 284 296 298 289 256 241 229 216 202 198 201 197 201
332 48 165 172 345 346 251 21 351 182 174 305 327 331 322 307 283 303 293 287 282 281 289 279 310 307 299 296 303 275 254 276 280 289 292 268 277 286 302 301 283 251 234 221 208 204 201 194 198
87 203 24 14 309 285 288 254 228 207 251 304 339 321 314 293 280 277 282 273 263 254 254 254 256 254 257 290 318 324 317 310 305 299 278 279 270 274 297 297 300 260 241 225 211 210 202 195 196
345 355 56 124 153 218 296 257 181 171 231 331 333 330 325 281 262 270 306 321 317 310 301 302 302 311 315 320 303 298 299 294 282 285 289 261 280 279 292 302 302 283 242 226 222 213 199 199 193
196 99 91 122 274 259 164 267 159 197 349 354 344 330 331 320 296 296 294 292 296 289 284 284 283 280 267 266 271 263 283 289 275 280 281 265 256 265 289 307 302 314 269 238 229 219 199 199 196